Regional Weather Roundup
Issued by NWS

Home | Current Version | Previous Version | Graphics & Text | Print | Product List | Glossary On
Versions: 1 2 3 4 5 6 7 8 9 10 11 12 13 14 15 16 17 18 19 20 21 22 23 24 25 26 27 28 29 30 31 32 33 34 35 36 37 38 39 40 41 42 43 44 45 46 47 48 49 50
000
ASUS45 KPSR 240700
RWRAZ

ARIZONA HOURLY REGIONAL WEATHER ROUNDUP
NATIONAL WEATHER SERVICE PHOENIX AZ
1200 AM MST SUN MAY 24 2015

NOTE: FAIR INDICATES FEW OR NO CLOUDS BELOW 12,000 FEET WITH NO
SIGNIFICANT WEATHER AND/OR OBSTRUCTIONS TO VISIBILITY.

AZZ001>003-036-240800-
NORTHWEST ARIZONA

CITY           SKY/WX    TMP DP  RH WIND       PRES   REMARKS
KINGMAN        MOCLDY    62  36  37 S10       29.95S
$$

AZZ004>008-015-016-018-240800-
NORTH CENTRAL ARIZONA

CITY           SKY/WX    TMP DP  RH WIND       PRES   REMARKS
GRAND CANYON   CLOUDY    45  39  79 SW6       30.05F
WILLIAMS       CLOUDY    46  32  57 S12       30.14F
PRESCOTT       CLEAR     51  33  50 S8        30.04S
FLAGSTAFF      NOT AVBL
PAYSON         CLEAR     50  34  53 CALM      30.07S
PAGE           LGT RAIN  52  50  93 CALM      29.98S
$$

AZZ009>014-017-240800-
NORTHEAST ARIZONA

CITY           SKY/WX    TMP DP  RH WIND       PRES   REMARKS
WINSLOW        NOT AVBL
SAINT JOHNS    PTCLDY    51  30  44 W8        30.04S
WINDOW ROCK    CLOUDY    46  36  68 CALM      30.06S
$$

AZZ023-240800-
GREATER PHOENIX AREA

CITY           SKY/WX    TMP DP  RH WIND       PRES   REMARKS
PHOENIX        CLEAR     73  39  29 SW5       29.89S
LUKE AFB       CLEAR     70  42  36 SW3       29.89R
DEER VALLEY    CLEAR     66  40  38 CALM      29.91R
SCOTTSDALE     CLEAR     71  40  32 CALM      29.92S
MESA-GATEWAY   PTCLDY    64  43  45 SE3       29.93S
$$

AZZ027-028-240800-
SOUTHWEST MARICOPA COUNTY AND PINAL COUNTY

CITY           SKY/WX    TMP DP  RH WIND       PRES   REMARKS
CASA GRANDE    CLEAR     66  37  34 W5        29.91S
GILA BEND      FAIR      70  42  36 SW9       29.90S
$$

AZZ503-504-507>509-240800-
SOUTHEAST ARIZONA

CITY           SKY/WX    TMP DP  RH WIND       PRES   REMARKS
TUCSON         CLEAR     66  33  29 W8        30.00R
DAVIS-MONTHAN  CLEAR     65  33  30 W12       29.98R
NOGALES        CLEAR     53  32  44 E5        30.04S
SIERRA VISTA   CLEAR     53  29  39 W8        30.07S
SAFFORD        CLEAR     60  29  30 NW9       29.95F
$$

AZZ020-021-025-026-031-240800-
SOUTHWEST ARIZONA

CITY           SKY/WX    TMP DP  RH WIND       PRES   REMARKS
YUMA           CLEAR     69  48  47 W3        29.91F
$$

CAZ031-033-041-043-047-048-061-240800-
SOUTHERN CALIFORNIA

CITY           SKY/WX    TMP DP  RH WIND       PRES   REMARKS
DOWNTOWN L.A.  CLOUDY    60  50  69 CALM      30.02F
L.A. AIRPORT   MOCLDY    59  53  80 W8        30.03F
SAN DIEGO      MOCLDY    63  52  67 W7        30.05F
BURBANK        PTCLDY    59  50  72 S6        30.01F
ONTARIO        CLOUDY    59  51  75 W8        30.02F
RIVERSIDE      CLOUDY    60  52  74 CALM      30.02F
PALM SPRINGS   CLEAR     69  49  48 NW20G28   29.89F
EL CENTRO NAS  CLEAR     67  47  48 W15       29.91F
IMPERIAL       CLEAR     66  48  52 W13       29.89S
BLYTHE         CLEAR     69  50  50 S10       29.88R
$$

NVZ020-UTZ003-240800-
SOUTHERN NEVADA-UTAH

CITY           SKY/WX    TMP DP  RH WIND       PRES   REMARKS
LAS VEGAS      NOT AVBL
SALT LAKE CITY MOCLDY    51  44  77 SE7       29.96S
$$

NMZ009-TXZ055-240800-
NEW MEXICO-WEST TEXAS

CITY           SKY/WX    TMP DP  RH WIND       PRES   REMARKS
ALBUQUERQUE    PTCLDY    55  34  45 NW18      30.01R
EL PASO        CLEAR     70  20  15 W9        29.94S
$$


........................KEY........................
SKY/WX - SKY CONDITION/WEATHER
TMP    - TEMPERATURE IN FAHRENHEIT
DP     - DEW POINT IN FAHRENHEIT
RH     - RELATIVE HUMIDITY IN PERCENT
WIND   - DIRECTION AND SPEED IN MILES PER HOUR (MPH)
VRB    - VARIABLE WIND DIRECTION
PRES   - MEAN SEA LEVEL PRESSURE IN INCHES OF MERCURY
         F - FALLING PRESSURE   R - RISING PRESSURE
         S - STEADY PRESSURE
VSB    - VISIBILITY IN MILES
HX     - HEAT INDEX IN FAHRENHEIT
WCI    - WIND CHILL INDEX IN FAHRENHEIT
TC     - TEMPERATURE IN CELSIUS WHICH IS ALSO KNOWN AS
         TEMPERATURE IN CENTIGRADE
AFB    - AIR FORCE BASE
         LUKE AFB IS LUKE AIR FORCE BASE
         DAVIS-MONTHAN IS DAVIS-MONTHAN AIR FORCE BASE
NAS    - NAVAL AIR STATION
         EL CENTRO NAS IS EL CENTRO NAVAL AIR STATION
N/A    - NOT AVAILABLE



USA.gov is the U.S. government's official web portal to all federal, state and local government web resources and services.